Regional Weather Roundup
Issued by NWS

Home | Current Version | Previous Version | Graphics & Text | Print | Product List | Glossary On
Versions: 1 2 3 4 5 6 7 8 9 10 11 12 13 14 15 16 17 18 19 20 21 22 23 24 25 26 27 28 29 30 31 32 33 34 35 36 37 38 39 40 41 42 43 44 45 46 47 48 49 50
000
ASUS43 KMKX 251710
RWRWI

WISCONSIN REGIONAL WEATHER ROUNDUP
NATIONAL WEATHER SERVICE MILWAUKEE/SULLIVAN WI
1100 AM CST SUN JAN 25 2015

NOTE: "FAIR" INDICATES FEW OR NO CLOUDS BELOW 12,000 FEET WITH NO
SIGNIFICANT WEATHER AND/OR OBSTRUCTIONS TO VISIBILITY.

WIZ001-002-006>008-014>016-023>028-251800-
NORTHWEST WISCONSIN

CITY           SKY/WX    TMP DP  RH WIND       PRES   REMARKS
SUPERIOR ARPT  CLOUDY    23  13  65 E13       30.08R WCI  11
ASHLAND        CLOUDY    19   9  65 E7        30.08R WCI  10
HAYWARD        CLOUDY    19   9  65 NE6       30.03R WCI  11
SIREN          PTSUNNY   22  12  66 NE7       30.05R WCI  14
CUMBERLAND     MOSUNNY   18   9  68 E9        30.01R WCI   6
RICE LAKE      MOSUNNY   18   9  68 N8        30.05R WCI   7
CHETEK         PTSUNNY   18   9  68 N5        30.04R WCI  11
LADYSMITH      CLOUDY    19  10  68 NE7       30.03R WCI  10
EAU CLAIRE     MOSUNNY   21  10  62 NE12      30.02R WCI   9
MENOMONIE      PTSUNNY   22  12  63 NE9       30.03R WCI  12
NEW RICHMOND   PTSUNNY   20  10  65 NE9       30.04R WCI   9
OSCEOLA        PTSUNNY   21  11  65 NE7       30.08R WCI  12
$$

WIZ003>005-009-010-017-018-251800-
NORTH CENTRAL WISCONSIN

CITY           SKY/WX    TMP DP  RH WIND       PRES   REMARKS
MANITOWISH WTR MOSUNNY   12   5  72 E6        30.00R WCI   3
ARBOR VITAE    PTSUNNY   17   8  67 CALM      29.99R
WOODRUFF       PTSUNNY   17   8  67 CALM      29.99R
RHINELANDER    CLOUDY    14   5  67 NE7       30.00R WCI   4
EAGLE RIVER    PTSUNNY   16   4  61 SE9       30.00R WCI   4
LAND O LAKES   PTSUNNY   14   5  69 E5        30.00R WCI   6
PHILLIPS       SUNNY     13   6  72 NE3       30.00R
TOMAHAWK       CLOUDY    16   7  68 NE7       30.01R WCI   6
MEDFORD        CLOUDY    17   9  70 E6        29.98R WCI   9
MERRILL        PTSUNNY   18   7  62 SE5       30.01R WCI  11
$$

WIZ029-030-035-036-043>047-251800-
CENTRAL WISCONSIN

CITY           SKY/WX    TMP DP  RH WIND       PRES   REMARKS
WAUSAU         CLOUDY    17   8  67 E10       29.99R WCI   5
MOSINEE        CLOUDY    18  10  73 NE13      30.01R WCI   4
MARSHFIELD     FLURRIES  19  10  68 E12       29.99R WCI   7
STEVENS POINT  PTSUNNY   17   8  66 E14       30.01R WCI   3
WAUPACA        CLOUDY    22  10  58 NE9G18    30.02R WCI  12
WAUTOMA        CLOUDY    20  11  68 NE14G22   30.01R WCI   7
WISC RAPIDS    CLOUDY    20  10  65 E12G20    30.02R WCI   8
CAMP DOUGLAS   CLOUDY    23  18  80 E10       29.99R WCI  12
$$

WIZ011>013-019>022-031-037>040-048>050-251800-
NORTHEAST WISCONSIN

CITY           SKY/WX    TMP DP  RH WIND       PRES   REMARKS
ANTIGO         CLOUDY    14   7  75 NE10      29.99R WCI   1
SHAWANO        CLOUDY    21  10  64 NE9       30.05R WCI  10
OCONTO         CLOUDY    19   8  64 MISG      30.06R
STURGEON BAY   CLOUDY    18  10  73 N13       30.05R WCI   4
GREEN BAY      LGT SNOW  19  11  70 NE23      30.03R WCI   2
MANITOWOC      CLOUDY    24  14  65 NE14G23   30.00R WCI  12
APPLETON       PTSUNNY   19  10  68 NE17      30.00R WCI   4
CLINTONVILLE   CLOUDY    21   9  58 NE13G18   30.04R WCI   9
OSHKOSH        CLOUDY    19  11  70 NE21G28   29.98R WCI   3
$$

WIZ032>034-041-042-053>061-251800-
SOUTHWEST WISCONSIN

CITY           SKY/WX    TMP DP  RH WIND       PRES   REMARKS
LA CROSSE      CLOUDY    29  16  58 E9        29.99R WCI  20
SPARTA         CLOUDY    26  15  64 E14       29.99R WCI  14
VIROQUA        CLOUDY    25  18  74 NE10      29.93R WCI  15
BOSCOBEL       CLOUDY    26  17  68 NE12G17   29.95R WCI  16
PRAIRIE DU CHI CLOUDY    27  17  67 NE7       29.94R WCI  19
PLATTEVILLE    CLOUDY    25  21  82 N18       29.88R WCI  12
$$

WIZ056-057-062-063-064-067-068-251800-
SOUTH CENTRAL WISCONSIN

CITY           SKY/WX    TMP DP  RH WIND       PRES   REMARKS
REEDSBURG      CLOUDY    21  14  75 NE14      29.96R WCI   8
BARABOO/DELLS  CLOUDY    20  14  76 NE13G20   29.95R WCI   7
LONE ROCK      CLOUDY    24  16  71 NE10      29.96R WCI  14
MINERAL POINT  CLOUDY    27  19  74 NE15G24   29.88R WCI  15
MADISON        CLOUDY    24  18  77 NE18G29   29.92R WCI  10
MIDDLETON      CLOUDY    25  19  77 NE14G26   29.93R WCI  13
WATERTOWN      CLOUDY    24  17  72 NE17      29.91S WCI  11
MONROE         CLOUDY    28  23  80 NE23G29   29.85R WCI  14
JANESVILLE     CLOUDY    30  21  69 NE23G29   29.87R WCI  17
$$

WIZ051-052-058>065-066-070>072-251800-
SOUTHEAST WISCONSIN

CITY           SKY/WX    TMP DP  RH WIND       PRES   REMARKS
MILWAUKEE      CLOUDY    26  15  63 NE21G29   29.92R WCI  12
WAUKESHA       CLOUDY    23  14  68 NE17G29   29.91R WCI   9
MILWAUKEE/TIMM CLOUDY    25  12  58 NE21G28   29.93R WCI  10
RACINE         CLOUDY    27  16  63 NE20G28   29.90R WCI  13
BURLINGTON     CLOUDY    24  16  69 NE16G29   29.89R WCI  11
KENOSHA        CLOUDY    28  20  71 NE18G28   29.87R WCI  15
FOND DU LAC    CLOUDY    22  14  71 N17       29.98R WCI   8
SHEBOYGAN      MOSUNNY   23  11  60 NE26G35   29.97R WCI   6
WEST BEND      MOSUNNY   25  12  58 NE21G26   29.93S WCI  10
JUNEAU         CLOUDY    23  16  72 NE18G25   29.94S WCI   9
$$

LSZ147-162-251800-
LAKE SUPERIOR

STATION/POSITION TIME  TEMP    WIND        PRES    WAVE
                       AIR SEA DIR/SP/G            HT/PER
                 (UTC) (F)     (DEG/KT/KT) (MB)    (FT/S)
DEVILS ISLAND    1700   18      40/ 16/ 18 1020.9R
PORT WING        1600   22      60/ 10/ 14 1017.9
SAXON HARBOR     1640   20      CALM  /  5 1019.0R
$$

LMZ867-665-643>646-251800-
LAKE MICHIGAN

STATION/POSITION TIME  TEMP    WIND        PRES    WAVE
                       AIR SEA DIR/SP/G            HT/PER
                 (UTC) (F)     (DEG/KT/KT) (MB)    (FT/S)
NORTHPORT PIER   1607   16     360/ 11/ 19 1017.6R
SISTER BAY       1613   18      20/  9/ 20   N/A
KEWAUNEE LAKESHO 1600   21      60/ 17/ 24 1015.2R
SHEBOYGAN LAKESH 1700   22      40/ 22/ 26 1016.0R
PORT WASHINGTON  1600   26      50/ 20     1014.6R
MILWAUKEE LAKESH 1600   26      40/ 24/ 30   N/A
KENOSHA   LAKESH 1700   28      40/ 24/ 27 1011.9R
$$

TC  - TEMPERATURE IN CELSIUS
VSB - VISIBILITY IN STATUTE MILES
WCI - WIND CHILL INDEX
HX  - HEAT INDEX



USA.gov is the U.S. government's official web portal to all federal, state and local government web resources and services.